Satellite: UO-22
Catalog number: 21575
Epoch time:      05047.67267465
Element set:    0331
Inclination:      098.2291 deg
RA of node:       017.6488 deg
Eccentricity:    0.0008386
Arg of perigee:   093.6755 deg
Mean anomaly:     266.5379 deg
Mean motion:   14.39461974 rev/day
Decay rate:        6.6e-07 rev/day^2
Epoch rev:           71316
Checksum:              342

Satellite: KO-23
Catalog number: 22077
Epoch time:      05047.56318636
Element set:    0395
Inclination:      066.0877 deg
RA of node:       039.0676 deg
Eccentricity:    0.0014956
Arg of perigee:   284.9963 deg
Mean anomaly:     074.9401 deg
Mean motion:   12.86428315 rev/day
Decay rate:       -3.7e-07 rev/day^2
Epoch rev:           58807
Checksum:              340

Satellite: AO-27
Catalog number: 22825
Epoch time:      05047.42307831
Element set:    0066
Inclination:      098.2495 deg
RA of node:       049.3374 deg
Eccentricity:    0.0007531
Arg of perigee:   257.6289 deg
Mean anomaly:     102.4059 deg
Mean motion:   14.29114710 rev/day
Decay rate:       1.18e-06 rev/day^2
Epoch rev:           59397
Checksum:              310

Satellite: IO-26
Catalog number: 22826
Epoch time:      05047.96497122
Element set:    0751
Inclination:      098.2436 deg
RA of node:       051.1397 deg
Eccentricity:    0.0008039
Arg of perigee:   258.7988 deg
Mean anomaly:     101.2296 deg
Mean motion:   14.29353732 rev/day
Decay rate:        6.4e-07 rev/day^2
Epoch rev:           59411
Checksum:              323

Satellite: KO-25
Catalog number: 22828
Epoch time:      05047.56871088
Element set:    0988
Inclination:      098.2381 deg
RA of node:       050.9827 deg
Eccentricity:    0.0009176
Arg of perigee:   232.8242 deg
Mean anomaly:     127.2096 deg
Mean motion:   14.29668747 rev/day
Decay rate:       -2.3e-07 rev/day^2
Epoch rev:           56228
Checksum:              342

Satellite: TO-31
Catalog number: 25396
Epoch time:      05047.66709347
Element set:    0180
Inclination:      098.5463 deg
RA of node:       118.4646 deg
Eccentricity:    0.0003154
Arg of perigee:   155.3910 deg
Mean anomaly:     204.7439 deg
Mean motion:   14.23657572 rev/day
Decay rate:       -4.3e-07 rev/day^2
Epoch rev:           34326
Checksum:              306

Satellite: GO-32
Catalog number: 25397
Epoch time:      05047.27964948
Element set:    0677
Inclination:      098.5370 deg
RA of node:       115.8333 deg
Eccentricity:    0.0001701
Arg of perigee:   153.3570 deg
Mean anomaly:     206.7696 deg
Mean motion:   14.23069797 rev/day
Decay rate:        5.1e-07 rev/day^2
Epoch rev:           34313
Checksum:              320

Satellite: UO-36
Catalog number: 25693
Epoch time:      05047.73628202
Element set:    0921
Inclination:      064.5582 deg
RA of node:       293.6113 deg
Eccentricity:    0.0036686
Arg of perigee:   226.9934 deg
Mean anomaly:     132.8084 deg
Mean motion:   14.78466743 rev/day
Decay rate:       -2.7e-07 rev/day^2
Epoch rev:           31401
Checksum:              317

Satellite: SO-41
Catalog number: 26545
Epoch time:      05047.97505658
Element set:    0004
Inclination:      064.5586 deg
RA of node:       308.0420 deg
Eccentricity:    0.0037560
Arg of perigee:   325.9097 deg
Mean anomaly:     033.9570 deg
Mean motion:   14.80021097 rev/day
Decay rate:       2.73e-06 rev/day^2
Epoch rev:           23714
Checksum:              297

Satellite: MO-46
Catalog number: 26548
Epoch time:      05047.65837250
Element set:    0109
Inclination:      064.5573 deg
RA of node:       293.1144 deg
Eccentricity:    0.0035813
Arg of perigee:   315.6043 deg
Mean anomaly:     044.2192 deg
Mean motion:   14.82624635 rev/day
Decay rate:       3.96e-06 rev/day^2
Epoch rev:           23742
Checksum:              302

Satellite: SO-42
Catalog number: 26549
Epoch time:      05047.87402431
Element set:    0064
Inclination:      064.5582 deg
RA of node:       316.3232 deg
Eccentricity:    0.0037922
Arg of perigee:   332.1187 deg
Mean anomaly:     027.7858 deg
Mean motion:   14.78905294 rev/day
Decay rate:       4.11e-06 rev/day^2
Epoch rev:           23696
Checksum:              313

Satellite: NO-44
Catalog number: 26931
Epoch time:      05047.68803480
Element set:    0975
Inclination:      067.0528 deg
RA of node:       178.1352 deg
Eccentricity:    0.0007020
Arg of perigee:   263.8509 deg
Mean anomaly:     096.1750 deg
Mean motion:   14.29361676 rev/day
Decay rate:       -9.4e-07 rev/day^2
Epoch rev:           17654
Checksum:              321

Satellite: AO-49
Catalog number: 27605
Epoch time:      05047.54156394
Element set:    0665
Inclination:      064.5581 deg
RA of node:       142.1412 deg
Eccentricity:    0.0085830
Arg of perigee:   263.7538 deg
Mean anomaly:     095.3740 deg
Mean motion:   14.72039440 rev/day
Decay rate:       1.68e-06 rev/day^2
Epoch rev:           11609
Checksum:              309

Satellite: SO-50
Catalog number: 27607
Epoch time:      05047.63055905
Element set:    0646
Inclination:      064.5588 deg
RA of node:       146.8480 deg
Eccentricity:    0.0086656
Arg of perigee:   262.6343 deg
Mean anomaly:     096.4885 deg
Mean motion:   14.70887649 rev/day
Decay rate:       4.24e-06 rev/day^2
Epoch rev:           11600
Checksum:              338

